Location: Unspecified
(41.5000°N, 0.0000°E)
Time: 18:42:55
(UTC+00:00)

Vanguard 1 - Pass Details

Date: 22 June 2019
Orbit: 653 x 3830 km, 34.3° (Epoch: 15 July)

Event Time Altitude Azimuth Distance (km) Brightness Sun altitude
Exits shadow 03:26:31 - 242° (WSW) 6,384 13.6 -9.6°
Reaches altitude 10° 03:27:26 10° 241° (WSW) 6,159 13.5 -9.5°
Maximum altitude 03:44:09 55° 171° (S) 2,439 11.9 -7.2°
Drops below altitude 10° 03:53:18 10° 96° (E) 3,526 13.6 -5.9°
Sets 03:55:41 0° 91° (E) 4,213 14.2 -5.5°
